Location: Gisborne
(38.6530°S, 178.0040°E)
Time: 09:49:57
(UTC+13:00)

Meteor 1-11 Rocket - Pass Details

Date: 24 January 2019
Orbit: 831 x 916 km, 81.2° (Epoch: 18 February)

Event Time Altitude Azimuth Distance (km) Brightness Sun altitude
Rises 23:35:50 0° 183° (S) 3,589 8.0 -27.2°
Reaches altitude 10° 23:38:28 10° 176° (S) 2,641 7.0 -27.4°
Enters shadow 23:44:11 45° 106° (ESE) 1,245 4.4 -27.9°
